Time,TemperatureF,DewpointF,PressureIn,WindDirection,WindDirectionDegrees,WindSpeedMPH,WindSpeedGustMPH,Humidity,HourlyPrecipIn,Conditions,Clouds,dailyrainin,SoftwareType,DateUTC
2013-03-13 00:12:00,46.0,43.0,30.18,North,0,0.0,-999.0,87,-99.99,,,-99.99,,2013-03-13 07:12:00,
2013-03-13 00:22:00,46.0,43.0,30.18,North,0,0.0,-999.0,87,-99.99,,,-99.99,,2013-03-13 07:22:00,
2013-03-13 00:32:00,46.0,43.0,30.18,North,0,0.0,-999.0,87,-99.99,,,-99.99,,2013-03-13 07:32:00,
2013-03-13 00:42:00,50.0,43.0,30.18,WNW,290,5.0,-999.0,76,-99.99,,,-99.99,,2013-03-13 07:42:00,
2013-03-13 00:52:00,50.0,43.0,30.18,WNW,290,5.0,-999.0,76,-99.99,,,-99.99,,2013-03-13 07:52:00,
2013-03-13 01:22:00,52.0,45.0,30.18,WNW,290,3.0,-999.0,76,-99.99,,,-99.99,,2013-03-13 08:22:00,
2013-03-13 01:32:00,52.0,45.0,30.18,WNW,290,3.0,-999.0,76,-99.99,,,-99.99,,2013-03-13 08:32:00,
2013-03-13 02:12:00,46.0,41.0,30.17,SSW,200,5.0,-999.0,81,-99.99,,,-99.99,,2013-03-13 09:12:00,
2013-03-13 02:22:00,46.0,41.0,30.17,SSW,200,5.0,-999.0,81,-99.99,,,-99.99,,2013-03-13 09:22:00,
2013-03-13 02:32:00,46.0,41.0,30.17,SSW,200,5.0,-999.0,81,-99.99,,,-99.99,,2013-03-13 09:32:00,
2013-03-13 02:42:00,46.0,41.0,30.18,South,190,6.0,-999.0,81,-99.99,,,-99.99,,2013-03-13 09:42:00,
2013-03-13 02:52:00,46.0,41.0,30.18,South,190,6.0,-999.0,81,-99.99,,,-99.99,,2013-03-13 09:52:00,
2013-03-13 03:11:00,50.0,45.0,30.19,WNW,290,8.0,-999.0,81,-99.99,,,-99.99,,2013-03-13 10:11:00,
2013-03-13 03:22:00,50.0,45.0,30.19,WNW,290,8.0,-999.0,81,-99.99,,,-99.99,,2013-03-13 10:22:00,
2013-03-13 03:32:00,50.0,45.0,30.19,WNW,290,8.0,-999.0,81,-99.99,,,-99.99,,2013-03-13 10:32:00,
2013-03-13 03:42:00,52.0,45.0,30.19,West,280,8.0,-999.0,76,-99.99,,,-99.99,,2013-03-13 10:42:00,
2013-03-13 03:52:00,52.0,45.0,30.19,West,280,8.0,-999.0,76,-99.99,,,-99.99,,2013-03-13 10:52:00,
2013-03-13 04:12:00,52.0,45.0,30.19,WNW,290,13.0,20.0,76,-99.99,,,-99.99,,2013-03-13 11:12:00,
2013-03-13 04:22:00,52.0,45.0,30.19,WNW,290,13.0,20.0,76,-99.99,,,-99.99,,2013-03-13 11:22:00,
2013-03-13 04:32:00,52.0,45.0,30.19,WNW,290,13.0,20.0,76,-99.99,,,-99.99,,2013-03-13 11:32:00,
2013-03-13 04:42:00,52.0,45.0,30.19,WNW,300,10.0,18.0,76,-99.99,,,-99.99,,2013-03-13 11:42:00,
2013-03-13 04:52:00,52.0,45.0,30.19,WNW,300,10.0,18.0,76,-99.99,,,-99.99,,2013-03-13 11:52:00,
2013-03-13 05:12:00,48.0,41.0,30.19,South,180,7.0,-999.0,76,-99.99,,,-99.99,,2013-03-13 12:12:00,
2013-03-13 05:22:00,48.0,41.0,30.19,South,180,7.0,-999.0,76,-99.99,,,-99.99,,2013-03-13 12:22:00,
2013-03-13 05:32:00,48.0,41.0,30.19,South,180,7.0,-999.0,76,-99.99,,,-99.99,,2013-03-13 12:32:00,
2013-03-13 05:42:00,46.0,41.0,30.19,North,0,0.0,-999.0,81,-99.99,,,-99.99,,2013-03-13 12:42:00,
2013-03-13 05:52:00,46.0,41.0,30.19,North,0,0.0,-999.0,81,-99.99,,,-99.99,,2013-03-13 12:52:00,
2013-03-13 06:11:00,50.0,43.0,30.19,NW,310,12.0,17.0,76,-99.99,,,-99.99,,2013-03-13 13:11:00,
2013-03-13 06:22:00,50.0,43.0,30.19,NW,310,12.0,17.0,76,-99.99,,,-99.99,,2013-03-13 13:22:00,
2013-03-13 06:32:00,50.0,43.0,30.19,NW,310,12.0,17.0,76,-99.99,,,-99.99,,2013-03-13 13:32:00,
2013-03-13 06:42:00,50.0,43.0,30.19,WNW,300,14.0,17.0,76,-99.99,,,-99.99,,2013-03-13 13:42:00,
2013-03-13 06:52:00,50.0,43.0,30.19,WNW,300,14.0,17.0,76,-99.99,,,-99.99,,2013-03-13 13:52:00,
2013-03-13 07:12:00,50.0,43.0,30.20,West,270,8.0,-999.0,76,-99.99,,,-99.99,,2013-03-13 14:12:00,
2013-03-13 07:21:00,50.0,43.0,30.20,West,270,8.0,-999.0,76,-99.99,,,-99.99,,2013-03-13 14:21:00,
2013-03-13 07:33:00,50.0,43.0,30.20,West,270,8.0,-999.0,76,-99.99,,,-99.99,,2013-03-13 14:33:00,
2013-03-13 07:42:00,50.0,43.0,30.20,ENE,60,3.0,-999.0,76,-99.99,,,-99.99,,2013-03-13 14:42:00,
2013-03-13 07:52:00,50.0,43.0,30.20,ENE,60,3.0,-999.0,76,-99.99,,,-99.99,,2013-03-13 14:52:00,
2013-03-13 08:12:00,45.0,41.0,30.20,South,170,3.0,-999.0,87,-99.99,,,-99.99,,2013-03-13 15:12:00,
2013-03-13 08:22:00,45.0,41.0,30.20,South,170,3.0,-999.0,87,-99.99,,,-99.99,,2013-03-13 15:22:00,
2013-03-13 08:32:00,45.0,41.0,30.20,South,170,3.0,-999.0,87,-99.99,,,-99.99,,2013-03-13 15:32:00,
2013-03-13 08:42:00,46.0,43.0,30.20,ESE,110,3.0,-999.0,87,-99.99,,,-99.99,,2013-03-13 15:42:00,
2013-03-13 08:52:00,46.0,43.0,30.20,ESE,110,3.0,-999.0,87,-99.99,,,-99.99,,2013-03-13 15:52:00,
2013-03-13 09:12:00,46.0,43.0,30.22,South,170,3.0,-999.0,87,-99.99,,,-99.99,,2013-03-13 16:12:00,
2013-03-13 09:22:00,46.0,43.0,30.22,South,170,3.0,-999.0,87,-99.99,,,-99.99,,2013-03-13 16:22:00,
2013-03-13 09:32:00,46.0,43.0,30.22,South,170,3.0,-999.0,87,-99.99,,,-99.99,,2013-03-13 16:32:00,
2013-03-13 09:42:00,48.0,43.0,30.22,North,0,0.0,-999.0,81,-99.99,,,-99.99,,2013-03-13 16:42:00,
2013-03-13 09:52:00,48.0,43.0,30.22,North,0,0.0,-999.0,81,-99.99,,,-99.99,,2013-03-13 16:52:00,
2013-03-13 10:12:00,50.0,45.0,30.22,North,0,0.0,-999.0,81,-99.99,,,-99.99,,2013-03-13 17:12:00,
2013-03-13 10:22:00,50.0,45.0,30.22,North,0,0.0,-999.0,81,-99.99,,,-99.99,,2013-03-13 17:22:00,
2013-03-13 10:32:00,50.0,45.0,30.22,North,0,0.0,-999.0,81,-99.99,,,-99.99,,2013-03-13 17:32:00,
2013-03-13 11:12:00,52.0,45.0,30.22,North,0,0.0,-999.0,76,-99.99,,,-99.99,,2013-03-13 18:12:00,
2013-03-13 11:22:00,52.0,45.0,30.22,North,0,0.0,-999.0,76,-99.99,,,-99.99,,2013-03-13 18:22:00,
2013-03-13 11:33:00,52.0,45.0,30.22,North,0,0.0,-999.0,76,-99.99,,,-99.99,,2013-03-13 18:33:00,
2013-03-13 11:42:00,54.0,45.0,30.22,North,0,0.0,-999.0,71,-99.99,,,-99.99,,2013-03-13 18:42:00,
2013-03-13 11:52:00,54.0,45.0,30.22,North,0,0.0,-999.0,71,-99.99,,,-99.99,,2013-03-13 18:52:00,
2013-03-13 12:12:00,55.0,45.0,30.21,North,0,0.0,-999.0,66,-99.99,,,-99.99,,2013-03-13 19:12:00,
2013-03-13 12:22:00,55.0,45.0,30.21,North,0,0.0,-999.0,66,-99.99,,,-99.99,,2013-03-13 19:22:00,
2013-03-13 12:32:00,55.0,45.0,30.21,North,0,0.0,-999.0,66,-99.99,,,-99.99,,2013-03-13 19:32:00,
2013-03-13 12:42:00,57.0,45.0,30.20,North,0,0.0,-999.0,62,-99.99,,,-99.99,,2013-03-13 19:42:00,
2013-03-13 12:52:00,57.0,45.0,30.20,North,0,0.0,-999.0,62,-99.99,,,-99.99,,2013-03-13 19:52:00,
2013-03-13 13:12:00,59.0,45.0,30.19,North,0,0.0,-999.0,58,-99.99,,,-99.99,,2013-03-13 20:12:00,
2013-03-13 13:22:00,59.0,45.0,30.19,North,0,0.0,-999.0,58,-99.99,,,-99.99,,2013-03-13 20:22:00,
2013-03-13 13:32:00,59.0,45.0,30.19,North,0,0.0,-999.0,58,-99.99,,,-99.99,,2013-03-13 20:32:00,
2013-03-13 13:42:00,61.0,45.0,30.19,WNW,300,7.0,-999.0,55,-99.99,,,-99.99,,2013-03-13 20:42:00,
2013-03-13 13:52:00,61.0,45.0,30.19,WNW,300,7.0,-999.0,55,-99.99,,,-99.99,,2013-03-13 20:52:00,
2013-03-13 14:12:00,59.0,45.0,30.18,West,280,3.0,-999.0,58,-99.99,,,-99.99,,2013-03-13 21:12:00,
2013-03-13 14:22:00,59.0,45.0,30.18,West,280,3.0,-999.0,58,-99.99,,,-99.99,,2013-03-13 21:22:00,
2013-03-13 14:32:00,59.0,45.0,30.18,West,280,3.0,-999.0,58,-99.99,,,-99.99,,2013-03-13 21:32:00,
2013-03-13 14:42:00,61.0,45.0,30.17,WNW,300,8.0,-999.0,55,-99.99,,,-99.99,,2013-03-13 21:42:00,
2013-03-13 14:51:00,61.0,45.0,30.17,WNW,300,8.0,-999.0,55,-99.99,,,-99.99,,2013-03-13 21:51:00,
2013-03-13 15:12:00,63.0,45.0,30.15,West,270,9.0,-999.0,51,-99.99,,,-99.99,,2013-03-13 22:12:00,
2013-03-13 15:22:00,63.0,45.0,30.15,West,270,9.0,-999.0,51,-99.99,,,-99.99,,2013-03-13 22:22:00,
2013-03-13 15:32:00,63.0,45.0,30.15,West,270,9.0,-999.0,51,-99.99,,,-99.99,,2013-03-13 22:32:00,
2013-03-13 15:42:00,63.0,45.0,30.15,West,280,6.0,-999.0,51,-99.99,,,-99.99,,2013-03-13 22:42:00,
2013-03-13 15:52:00,63.0,45.0,30.15,West,280,6.0,-999.0,51,-99.99,,,-99.99,,2013-03-13 22:52:00,
2013-03-13 16:12:00,64.0,45.0,30.13,NW,310,7.0,-999.0,48,-99.99,,,-99.99,,2013-03-13 23:12:00,
2013-03-13 16:22:00,64.0,45.0,30.13,NW,310,7.0,-999.0,48,-99.99,,,-99.99,,2013-03-13 23:22:00,
2013-03-13 16:32:00,64.0,45.0,30.13,NW,310,7.0,-999.0,48,-99.99,,,-99.99,,2013-03-13 23:32:00,
2013-03-13 16:42:00,64.0,45.0,30.13,WNW,300,10.0,17.0,48,-99.99,,,-99.99,,2013-03-13 23:42:00,
2013-03-13 16:52:00,64.0,45.0,30.13,WNW,300,10.0,17.0,48,-99.99,,,-99.99,,2013-03-13 23:52:00,
2013-03-13 17:12:00,64.0,45.0,30.13,WNW,290,12.0,21.0,48,-99.99,,,-99.99,,2013-03-14 00:12:00,
2013-03-13 17:22:00,64.0,45.0,30.13,WNW,290,12.0,21.0,48,-99.99,,,-99.99,,2013-03-14 00:22:00,
2013-03-13 17:32:00,64.0,45.0,30.13,WNW,290,12.0,21.0,48,-99.99,,,-99.99,,2013-03-14 00:32:00,
2013-03-13 17:42:00,64.0,45.0,30.12,West,280,10.0,17.0,48,-99.99,,,-99.99,,2013-03-14 00:42:00,
2013-03-13 17:52:00,64.0,45.0,30.12,West,280,10.0,17.0,48,-99.99,,,-99.99,,2013-03-14 00:52:00,
2013-03-13 18:12:00,63.0,45.0,30.12,WNW,290,9.0,-999.0,51,-99.99,,,-99.99,,2013-03-14 01:12:00,
2013-03-13 18:22:00,63.0,45.0,30.12,WNW,290,9.0,-999.0,51,-99.99,,,-99.99,,2013-03-14 01:22:00,
2013-03-13 18:32:00,63.0,45.0,30.12,WNW,290,9.0,-999.0,51,-99.99,,,-99.99,,2013-03-14 01:32:00,
2013-03-13 18:42:00,63.0,45.0,30.12,WNW,290,6.0,-999.0,51,-99.99,,,-99.99,,2013-03-14 01:42:00,
2013-03-13 18:52:00,63.0,45.0,30.12,WNW,290,6.0,-999.0,51,-99.99,,,-99.99,,2013-03-14 01:52:00,
2013-03-13 19:12:00,61.0,45.0,30.11,WNW,290,3.0,-999.0,55,-99.99,,,-99.99,,2013-03-14 02:12:00,
2013-03-13 19:22:00,61.0,45.0,30.11,WNW,290,3.0,-999.0,55,-99.99,,,-99.99,,2013-03-14 02:22:00,
2013-03-13 19:32:00,61.0,45.0,30.11,WNW,290,3.0,-999.0,55,-99.99,,,-99.99,,2013-03-14 02:32:00,
2013-03-13 20:12:00,57.0,45.0,30.12,North,0,0.0,-999.0,62,-99.99,,,-99.99,,2013-03-14 03:12:00,
2013-03-13 20:22:00,57.0,45.0,30.12,North,0,0.0,-999.0,62,-99.99,,,-99.99,,2013-03-14 03:22:00,
2013-03-13 20:32:00,57.0,45.0,30.12,North,0,0.0,-999.0,62,-99.99,,,-99.99,,2013-03-14 03:32:00,
2013-03-13 20:42:00,57.0,45.0,30.11,North,0,0.0,-999.0,62,-99.99,,,-99.99,,2013-03-14 03:42:00,
2013-03-13 20:52:00,57.0,45.0,30.11,North,0,0.0,-999.0,62,-99.99,,,-99.99,,2013-03-14 03:52:00,
2013-03-13 21:12:00,52.0,46.0,30.11,SSW,210,5.0,-999.0,81,-99.99,,,-99.99,,2013-03-14 04:12:00,
2013-03-13 21:22:00,52.0,46.0,30.11,SSW,210,5.0,-999.0,81,-99.99,,,-99.99,,2013-03-14 04:22:00,
2013-03-13 21:32:00,52.0,46.0,30.11,SSW,210,5.0,-999.0,81,-99.99,,,-99.99,,2013-03-14 04:32:00,
2013-03-13 21:42:00,54.0,46.0,30.11,SSW,210,3.0,-999.0,76,-99.99,,,-99.99,,2013-03-14 04:42:00,
2013-03-13 21:52:00,54.0,46.0,30.11,SSW,210,3.0,-999.0,76,-99.99,,,-99.99,,2013-03-14 04:52:00,
2013-03-13 22:12:00,52.0,46.0,30.11,North,0,0.0,-999.0,81,-99.99,,,-99.99,,2013-03-14 05:12:00,
2013-03-13 22:22:00,52.0,46.0,30.11,North,0,0.0,-999.0,81,-99.99,,,-99.99,,2013-03-14 05:22:00,
2013-03-13 22:33:00,52.0,46.0,30.11,North,0,0.0,-999.0,81,-99.99,,,-99.99,,2013-03-14 05:33:00,
2013-03-13 22:52:00,52.0,46.0,30.11,North,0,0.0,-999.0,81,-99.99,,,-99.99,,2013-03-14 05:52:00,
2013-03-13 23:12:00,50.0,45.0,30.12,North,0,0.0,-999.0,81,-99.99,,,-99.99,,2013-03-14 06:12:00,
2013-03-13 23:22:00,50.0,45.0,30.12,North,0,0.0,-999.0,81,-99.99,,,-99.99,,2013-03-14 06:22:00,
2013-03-13 23:32:00,50.0,45.0,30.12,North,0,0.0,-999.0,81,-99.99,,,-99.99,,2013-03-14 06:32:00,
2013-03-13 23:42:00,48.0,45.0,30.12,North,0,0.0,-999.0,87,-99.99,,,-99.99,,2013-03-14 06:42:00,
2013-03-13 23:52:00,48.0,45.0,30.12,North,0,0.0,-999.0,87,-99.99,,,-99.99,,2013-03-14 06:52:00,